Time,TemperatureF,DewpointF,PressureIn,WindDirection,WindDirectionDegrees,WindSpeedMPH,WindSpeedGustMPH,Humidity,HourlyPrecipIn,Conditions,Clouds,dailyrainin,SoftwareType,DateUTC
2013-07-16 00:00:00,73.3,70.9,30.30,SSE,160,0.0,0.0,90,0.00,,,0.01,dv,2013-07-16 04:00:00,
2013-07-16 00:05:00,73.1,70.7,30.30,SSE,159,0.0,0.0,90,0.00,,,0.00,dv,2013-07-16 04:05:00,
2013-07-16 00:10:00,73.2,70.8,30.30,SSE,160,0.0,0.0,90,0.00,,,0.00,dv,2013-07-16 04:10:00,
2013-07-16 00:15:00,73.1,70.7,30.31,SSE,159,0.0,0.0,90,0.00,,,0.00,dv,2013-07-16 04:15:00,
2013-07-16 00:20:00,73.0,70.8,30.30,SSE,159,0.0,0.0,91,0.00,,,0.00,dv,2013-07-16 04:20:00,
2013-07-16 00:25:00,72.9,70.5,30.30,SSE,160,0.0,0.0,90,0.00,,,0.00,dv,2013-07-16 04:25:00,
2013-07-16 00:30:00,72.8,70.6,30.30,SSE,160,0.0,0.0,91,0.00,,,0.00,dv,2013-07-16 04:30:00,
2013-07-16 00:35:00,72.8,70.6,30.30,SSE,159,0.0,0.0,91,0.00,,,0.00,dv,2013-07-16 04:35:00,
2013-07-16 00:40:00,72.7,70.5,30.31,SSE,159,0.0,0.0,91,0.00,,,0.00,dv,2013-07-16 04:40:00,
2013-07-16 00:45:00,72.6,70.4,30.30,SSE,159,0.0,0.0,91,0.00,,,0.00,dv,2013-07-16 04:45:00,
2013-07-16 00:50:00,72.5,70.3,30.30,SSE,159,0.0,0.0,91,0.00,,,0.00,dv,2013-07-16 04:50:00,
2013-07-16 00:55:00,72.6,70.4,30.30,SSE,159,0.0,0.0,91,0.00,,,0.00,dv,2013-07-16 04:55:00,
2013-07-16 01:00:00,72.5,70.3,30.30,SSE,159,0.0,0.0,91,0.00,,,0.00,dv,2013-07-16 05:00:00,
2013-07-16 01:05:00,72.4,70.5,30.30,SSE,160,0.0,0.0,92,0.00,,,0.00,dv,2013-07-16 05:05:00,
2013-07-16 01:10:00,72.2,70.3,30.30,SSE,159,0.0,0.0,92,0.00,,,0.00,dv,2013-07-16 05:10:00,
2013-07-16 01:15:00,72.2,70.3,30.30,SSE,159,0.0,0.0,92,0.00,,,0.00,dv,2013-07-16 05:15:00,
2013-07-16 01:20:00,72.2,70.3,30.30,SSE,160,0.0,0.0,92,0.00,,,0.00,dv,2013-07-16 05:20:00,
2013-07-16 01:25:00,72.2,70.3,30.30,SSE,159,0.0,0.0,92,0.00,,,0.00,dv,2013-07-16 05:25:00,
2013-07-16 01:30:00,72.0,70.1,30.30,SSE,159,0.0,0.0,92,0.00,,,0.00,dv,2013-07-16 05:30:00,
2013-07-16 01:35:00,71.8,70.1,30.30,SSE,159,0.0,0.0,93,0.00,,,0.00,dv,2013-07-16 05:35:00,
2013-07-16 01:40:00,71.9,70.2,30.30,SSE,160,0.0,0.0,93,0.00,,,0.00,dv,2013-07-16 05:40:00,
2013-07-16 01:45:00,71.7,70.0,30.30,SSE,160,0.0,0.0,93,0.00,,,0.00,dv,2013-07-16 05:45:00,
2013-07-16 01:55:00,71.8,70.4,30.30,SSE,159,0.0,0.0,94,0.00,,,0.00,dv,2013-07-16 05:55:00,
2013-07-16 02:00:00,71.7,70.0,30.30,SSE,159,0.0,0.0,93,0.00,,,0.00,dv,2013-07-16 06:00:00,
2013-07-16 02:05:00,71.7,70.3,30.30,SSE,160,0.0,0.0,94,0.00,,,0.00,dv,2013-07-16 06:05:00,
2013-07-16 02:10:00,71.7,70.0,30.30,SSE,159,0.0,0.0,93,0.00,,,0.00,dv,2013-07-16 06:10:00,
2013-07-16 02:15:00,71.6,70.2,30.30,SSE,159,0.0,0.0,94,0.00,,,0.00,dv,2013-07-16 06:15:00,
2013-07-16 02:20:00,71.6,70.2,30.29,SSE,159,0.0,0.0,94,0.00,,,0.00,dv,2013-07-16 06:20:00,
2013-07-16 02:25:00,71.5,70.1,30.30,SSE,159,0.0,0.0,94,0.00,,,0.00,dv,2013-07-16 06:25:00,
2013-07-16 02:30:00,71.5,70.1,30.30,SSE,159,0.0,0.0,94,0.00,,,0.00,dv,2013-07-16 06:30:00,
2013-07-16 02:35:00,71.5,70.1,30.29,SSE,159,0.0,0.0,94,0.00,,,0.00,dv,2013-07-16 06:35:00,
2013-07-16 02:40:00,71.4,70.0,30.30,SSE,159,0.0,0.0,94,0.00,,,0.00,dv,2013-07-16 06:40:00,
2013-07-16 02:45:00,71.3,69.9,30.29,SSE,160,0.0,0.0,94,0.00,,,0.00,dv,2013-07-16 06:45:00,
2013-07-16 02:50:00,71.3,69.9,30.29,SSE,159,0.0,0.0,94,0.00,,,0.00,dv,2013-07-16 06:50:00,
2013-07-16 02:55:00,71.2,69.8,30.29,SSE,160,0.0,0.0,94,0.00,,,0.00,dv,2013-07-16 06:55:00,
2013-07-16 03:00:00,71.2,69.8,30.29,SSE,159,0.0,0.0,94,0.00,,,0.00,dv,2013-07-16 07:00:00,
2013-07-16 03:05:00,71.1,69.7,30.29,SSE,160,0.0,0.0,94,0.00,,,0.00,dv,2013-07-16 07:05:00,
2013-07-16 03:10:00,71.1,69.7,30.29,SSE,159,0.0,0.0,94,0.00,,,0.00,dv,2013-07-16 07:10:00,
2013-07-16 03:15:00,70.9,69.5,30.29,SSE,159,0.0,0.0,94,0.00,,,0.00,dv,2013-07-16 07:15:00,
2013-07-16 03:20:00,71.0,69.6,30.29,SSE,160,0.0,0.0,94,0.00,,,0.00,dv,2013-07-16 07:20:00,
2013-07-16 03:25:00,70.8,69.4,30.29,SSE,159,0.0,0.0,94,0.00,,,0.00,dv,2013-07-16 07:25:00,
2013-07-16 03:30:00,70.8,69.4,30.29,SSE,159,0.0,0.0,94,0.00,,,0.00,dv,2013-07-16 07:30:00,
2013-07-16 03:35:00,70.8,69.4,30.29,SSE,160,0.0,0.0,94,0.00,,,0.00,dv,2013-07-16 07:35:00,
2013-07-16 03:40:00,70.8,69.6,30.29,SSE,159,0.0,0.0,95,0.00,,,0.00,dv,2013-07-16 07:40:00,
2013-07-16 03:45:00,70.7,69.3,30.28,SSE,159,0.0,0.0,94,0.00,,,0.00,dv,2013-07-16 07:45:00,
2013-07-16 03:50:00,70.6,69.4,30.28,SSE,159,0.0,0.0,95,0.00,,,0.00,dv,2013-07-16 07:50:00,
2013-07-16 03:55:00,70.7,69.5,30.29,SSE,159,0.0,0.0,95,0.00,,,0.00,dv,2013-07-16 07:55:00,
2013-07-16 04:00:00,70.7,69.5,30.28,SSE,159,0.0,0.0,95,0.00,,,0.00,dv,2013-07-16 08:00:00,
2013-07-16 04:05:00,70.7,69.5,30.29,SSE,160,0.0,0.0,95,0.00,,,0.00,dv,2013-07-16 08:05:00,
2013-07-16 04:10:00,70.5,69.3,30.29,SSE,159,0.0,0.0,95,0.00,,,0.00,dv,2013-07-16 08:10:00,
2013-07-16 04:15:00,70.6,69.4,30.28,SSE,159,0.0,0.0,95,0.00,,,0.00,dv,2013-07-16 08:15:00,
2013-07-16 04:20:00,70.5,69.3,30.29,SSE,159,0.0,0.0,95,0.00,,,0.00,dv,2013-07-16 08:20:00,
2013-07-16 04:25:00,70.5,69.3,30.29,SSE,159,0.0,0.0,95,0.00,,,0.00,dv,2013-07-16 08:25:00,
2013-07-16 04:30:00,70.5,69.3,30.29,SSE,159,0.0,0.0,95,0.00,,,0.00,dv,2013-07-16 08:30:00,
2013-07-16 04:35:00,70.4,69.5,30.29,SSE,159,0.0,0.0,96,0.00,,,0.00,dv,2013-07-16 08:35:00,
2013-07-16 04:40:00,70.3,69.4,30.29,SSE,159,0.0,0.0,96,0.00,,,0.00,dv,2013-07-16 08:40:00,
2013-07-16 04:45:00,70.3,69.1,30.29,SSE,160,0.0,0.0,95,0.00,,,0.00,dv,2013-07-16 08:45:00,
2013-07-16 04:50:00,70.3,69.4,30.29,SSE,159,0.0,0.0,96,0.00,,,0.00,dv,2013-07-16 08:50:00,
2013-07-16 04:55:00,70.3,69.4,30.29,SSE,159,0.0,0.0,96,0.00,,,0.00,dv,2013-07-16 08:55:00,
2013-07-16 05:00:00,70.3,69.4,30.29,SSE,160,0.0,0.0,96,0.00,,,0.00,dv,2013-07-16 09:00:00,
2013-07-16 05:05:00,70.3,69.4,30.29,SSE,159,0.0,0.0,96,0.00,,,0.00,dv,2013-07-16 09:05:00,
2013-07-16 05:10:00,70.1,68.9,30.28,SSE,159,0.0,0.0,95,0.00,,,0.00,dv,2013-07-16 09:10:00,
2013-07-16 05:15:00,70.2,69.3,30.28,SSE,159,0.0,0.0,96,0.00,,,0.00,dv,2013-07-16 09:15:00,
2013-07-16 05:20:00,70.2,69.3,30.29,SSE,159,0.0,0.0,96,0.00,,,0.00,dv,2013-07-16 09:20:00,
2013-07-16 05:25:00,70.1,69.2,30.29,SSE,159,0.0,0.0,96,0.00,,,0.00,dv,2013-07-16 09:25:00,
2013-07-16 05:30:00,70.0,69.1,30.29,SSE,159,0.0,0.0,96,0.00,,,0.00,dv,2013-07-16 09:30:00,
2013-07-16 05:35:00,69.9,69.0,30.29,SSE,159,0.0,0.0,96,0.00,,,0.00,dv,2013-07-16 09:35:00,
2013-07-16 05:40:00,70.1,68.9,30.29,SSE,159,0.0,0.0,95,0.00,,,0.00,dv,2013-07-16 09:40:00,
2013-07-16 05:45:00,70.0,68.8,30.29,SSE,159,0.0,0.0,95,0.00,,,0.00,dv,2013-07-16 09:45:00,
2013-07-16 05:50:00,69.9,69.0,30.30,SSE,159,0.0,0.0,96,0.00,,,0.00,dv,2013-07-16 09:50:00,
2013-07-16 05:55:00,69.9,69.0,30.29,SSE,160,0.0,0.0,96,0.00,,,0.00,dv,2013-07-16 09:55:00,
2013-07-16 06:00:00,69.9,69.0,30.29,SSE,159,0.0,0.0,96,0.00,,,0.00,dv,2013-07-16 10:00:00,
2013-07-16 06:05:00,69.9,69.0,30.30,SSE,159,0.0,0.0,96,0.00,,,0.00,dv,2013-07-16 10:05:00,
2013-07-16 06:10:00,69.8,68.9,30.29,SSE,159,0.0,0.0,96,0.00,,,0.00,dv,2013-07-16 10:10:00,
2013-07-16 06:15:00,69.9,69.0,30.30,SSE,159,0.0,0.0,96,0.00,,,0.00,dv,2013-07-16 10:15:00,
2013-07-16 06:20:00,69.9,69.0,30.30,SSE,159,0.0,0.0,96,0.00,,,0.00,dv,2013-07-16 10:20:00,
2013-07-16 06:25:00,69.8,68.9,30.30,SSE,159,0.0,0.0,96,0.00,,,0.00,dv,2013-07-16 10:25:00,
2013-07-16 06:30:00,69.9,69.0,30.30,SSE,159,0.0,0.0,96,0.00,,,0.00,dv,2013-07-16 10:30:00,
2013-07-16 06:35:00,69.9,69.2,30.30,SSE,159,0.0,0.0,97,0.00,,,0.00,dv,2013-07-16 10:35:00,
2013-07-16 06:40:00,70.0,69.3,30.31,SSE,159,0.0,0.0,97,0.00,,,0.00,dv,2013-07-16 10:40:00,
2013-07-16 06:45:00,70.0,69.3,30.30,SSE,159,0.0,0.0,97,0.00,,,0.00,dv,2013-07-16 10:45:00,
2013-07-16 06:50:00,70.1,69.4,30.30,SSE,159,0.0,0.0,97,0.00,,,0.00,dv,2013-07-16 10:50:00,
2013-07-16 06:55:00,70.2,69.5,30.30,SSE,160,0.0,0.0,97,0.00,,,0.00,dv,2013-07-16 10:55:00,
2013-07-16 07:00:00,70.2,69.5,30.31,SSE,159,0.0,0.0,97,0.00,,,0.00,dv,2013-07-16 11:00:00,
2013-07-16 07:05:00,70.2,69.7,30.31,SSE,159,0.0,0.0,98,0.00,,,0.00,dv,2013-07-16 11:05:00,
2013-07-16 07:10:00,70.4,69.9,30.31,SSE,160,0.0,0.0,98,0.00,,,0.00,dv,2013-07-16 11:10:00,
2013-07-16 07:15:00,70.4,69.9,30.31,SSE,159,0.0,0.0,98,0.00,,,0.00,dv,2013-07-16 11:15:00,
2013-07-16 07:20:00,70.5,70.0,30.32,SSE,159,0.0,0.0,98,0.00,,,0.00,dv,2013-07-16 11:20:00,
2013-07-16 07:30:00,70.7,70.2,30.31,SSE,160,0.0,0.0,98,0.00,,,0.00,dv,2013-07-16 11:30:00,
2013-07-16 07:35:00,70.8,70.6,30.31,SSE,160,0.0,0.0,99,0.00,,,0.00,dv,2013-07-16 11:35:00,
2013-07-16 07:40:00,70.9,70.4,30.31,SSE,159,0.0,0.0,98,0.00,,,0.00,dv,2013-07-16 11:40:00,
2013-07-16 07:45:00,70.9,70.7,30.31,SSE,159,0.0,0.0,99,0.00,,,0.00,dv,2013-07-16 11:45:00,
2013-07-16 07:50:00,71.1,70.9,30.32,SSE,159,0.0,0.0,99,0.00,,,0.00,dv,2013-07-16 11:50:00,
2013-07-16 07:55:00,71.2,71.0,30.31,SSE,159,0.0,0.0,99,0.00,,,0.00,dv,2013-07-16 11:55:00,
2013-07-16 08:00:00,71.0,70.8,30.31,SSE,159,0.0,0.0,99,0.00,,,0.00,dv,2013-07-16 12:00:00,
2013-07-16 08:10:00,71.2,71.0,30.32,SSE,159,0.0,0.0,99,0.00,,,0.00,dv,2013-07-16 12:10:00,
2013-07-16 08:15:00,71.3,71.1,30.32,SSE,159,0.0,0.0,99,0.00,,,0.00,dv,2013-07-16 12:15:00,
2013-07-16 08:20:00,71.4,71.2,30.32,SSE,159,0.0,0.0,99,0.00,,,0.00,dv,2013-07-16 12:20:00,
2013-07-16 08:25:00,71.5,71.3,30.32,SSE,159,0.0,0.0,99,0.00,,,0.00,dv,2013-07-16 12:25:00,
2013-07-16 08:30:00,71.6,71.4,30.33,SSE,160,0.0,0.0,99,0.00,,,0.00,dv,2013-07-16 12:30:00,
2013-07-16 08:35:00,71.7,71.5,30.33,SSE,159,0.0,0.0,99,0.00,,,0.00,dv,2013-07-16 12:35:00,
2013-07-16 08:40:00,71.9,71.7,30.33,SSE,160,0.0,0.0,99,0.00,,,0.00,dv,2013-07-16 12:40:00,
2013-07-16 08:45:00,71.9,71.7,30.34,SSE,160,0.0,0.0,99,0.00,,,0.00,dv,2013-07-16 12:45:00,
2013-07-16 08:50:00,72.2,72.2,30.33,SSE,160,0.0,0.0,100,0.00,,,0.00,dv,2013-07-16 12:50:00,
2013-07-16 08:55:00,72.3,72.3,30.33,SSE,159,0.0,0.0,100,0.00,,,0.00,dv,2013-07-16 12:55:00,
2013-07-16 09:00:00,72.5,72.5,30.33,SSE,159,0.0,0.0,100,0.00,,,0.00,dv,2013-07-16 13:00:00,
2013-07-16 09:05:00,72.5,72.5,30.33,SSE,159,0.0,0.0,100,0.00,,,0.00,dv,2013-07-16 13:05:00,
2013-07-16 09:10:00,72.7,72.7,30.34,SSE,160,1.6,1.6,100,0.00,,,0.00,dv,2013-07-16 13:10:00,
2013-07-16 09:15:00,72.7,72.7,30.33,SSE,160,0.0,0.0,100,0.00,,,0.00,dv,2013-07-16 13:15:00,
2013-07-16 09:20:00,72.9,72.9,30.34,SSE,159,0.0,0.0,100,0.00,,,0.00,dv,2013-07-16 13:20:00,
2013-07-16 09:25:00,72.9,72.9,30.34,SSE,160,0.0,0.0,100,0.00,,,0.00,dv,2013-07-16 13:25:00,
2013-07-16 09:30:00,73.0,72.8,30.33,SSE,160,0.0,0.0,99,0.00,,,0.00,dv,2013-07-16 13:30:00,
2013-07-16 09:35:00,73.1,72.6,30.33,SSE,159,0.0,0.0,98,0.00,,,0.00,dv,2013-07-16 13:35:00,
2013-07-16 09:40:00,73.2,72.7,30.34,SSE,160,0.0,0.0,98,0.00,,,0.00,dv,2013-07-16 13:40:00,
2013-07-16 09:45:00,73.2,72.7,30.33,SSE,159,0.0,0.0,98,0.00,,,0.00,dv,2013-07-16 13:45:00,
2013-07-16 09:55:00,73.4,72.7,30.33,SSE,159,0.0,0.0,97,0.00,,,0.00,dv,2013-07-16 13:55:00,
2013-07-16 10:00:00,73.6,72.7,30.33,SSE,159,0.0,0.0,96,0.00,,,0.00,dv,2013-07-16 14:00:00,
2013-07-16 10:05:00,73.8,72.9,30.33,South,175,0.0,0.0,96,0.00,,,0.00,dv,2013-07-16 14:05:00,
2013-07-16 10:10:00,73.8,72.4,30.33,South,175,0.0,0.0,94,0.00,,,0.00,dv,2013-07-16 14:10:00,
2013-07-16 10:15:00,73.9,72.5,30.33,South,175,0.0,0.0,94,0.00,,,0.00,dv,2013-07-16 14:15:00,
2013-07-16 10:20:00,74.1,72.2,30.33,South,175,1.6,1.6,92,0.00,,,0.00,dv,2013-07-16 14:20:00,
2013-07-16 10:25:00,74.6,72.4,30.34,South,175,1.6,1.6,91,0.00,,,0.00,dv,2013-07-16 14:25:00,
2013-07-16 10:30:00,74.8,72.6,30.33,South,175,1.6,1.6,91,0.00,,,0.00,dv,2013-07-16 14:30:00,
2013-07-16 10:35:00,75.0,72.3,30.33,South,176,0.0,0.0,89,0.00,,,0.00,dv,2013-07-16 14:35:00,
2013-07-16 10:40:00,75.2,72.2,30.33,South,175,0.0,0.0,88,0.00,,,0.00,dv,2013-07-16 14:40:00,
2013-07-16 10:45:00,75.6,72.6,30.33,South,176,0.0,0.0,88,0.00,,,0.00,dv,2013-07-16 14:45:00,
2013-07-16 10:50:00,75.8,72.5,30.33,South,175,0.0,0.0,87,0.00,,,0.00,dv,2013-07-16 14:50:00,
2013-07-16 10:55:00,76.1,72.3,30.33,South,175,0.0,0.0,85,0.00,,,0.00,dv,2013-07-16 14:55:00,
2013-07-16 11:00:00,76.3,72.2,30.33,South,175,0.0,0.0,84,0.00,,,0.00,dv,2013-07-16 15:00:00,
2013-07-16 11:05:00,76.4,71.5,30.33,South,175,1.6,1.6,81,0.00,,,0.00,dv,2013-07-16 15:05:00,
2013-07-16 11:10:00,76.7,71.7,30.33,South,175,1.6,1.6,81,0.00,,,0.00,dv,2013-07-16 15:10:00,
2013-07-16 11:15:00,77.0,71.8,30.33,South,175,0.0,0.0,80,0.00,,,0.00,dv,2013-07-16 15:15:00,
2013-07-16 11:20:00,77.2,72.2,30.33,South,174,0.0,0.0,81,0.00,,,0.00,dv,2013-07-16 15:20:00,
2013-07-16 11:25:00,77.3,72.3,30.33,South,174,0.0,0.0,81,0.00,,,0.00,dv,2013-07-16 15:25:00,
2013-07-16 11:30:00,77.4,72.4,30.33,South,173,0.0,0.0,81,0.00,,,0.00,dv,2013-07-16 15:30:00,
2013-07-16 11:35:00,77.5,72.5,30.33,South,174,0.0,0.0,81,0.00,,,0.00,dv,2013-07-16 15:35:00,
2013-07-16 11:40:00,77.4,71.6,30.32,South,173,0.0,0.0,78,0.00,,,0.00,dv,2013-07-16 15:40:00,
2013-07-16 11:45:00,77.6,71.4,30.32,South,174,0.0,0.0,77,0.00,,,0.00,dv,2013-07-16 15:45:00,
2013-07-16 11:50:00,77.8,72.2,30.33,South,174,1.6,1.6,79,0.00,,,0.00,dv,2013-07-16 15:50:00,
2013-07-16 11:55:00,77.9,71.7,30.33,South,174,1.6,1.6,77,0.00,,,0.00,dv,2013-07-16 15:55:00,
2013-07-16 12:00:00,78.0,72.1,30.32,South,174,0.0,0.0,78,0.00,,,0.00,dv,2013-07-16 16:00:00,
2013-07-16 12:05:00,78.3,71.8,30.32,South,173,0.0,0.0,76,0.00,,,0.00,dv,2013-07-16 16:05:00,
2013-07-16 12:10:00,78.6,71.5,30.32,South,169,3.2,3.2,74,0.00,,,0.00,dv,2013-07-16 16:10:00,
2013-07-16 12:15:00,78.9,71.8,30.32,South,169,1.6,1.6,74,0.00,,,0.00,dv,2013-07-16 16:15:00,
2013-07-16 12:20:00,79.1,72.0,30.32,South,169,1.6,1.6,74,0.00,,,0.00,dv,2013-07-16 16:20:00,
2013-07-16 12:25:00,79.2,72.7,30.32,South,169,0.0,0.0,76,0.00,,,0.00,dv,2013-07-16 16:25:00,
2013-07-16 12:30:00,79.4,71.6,30.32,South,169,3.2,3.2,72,0.00,,,0.00,dv,2013-07-16 16:30:00,
2013-07-16 12:35:00,79.5,72.0,30.32,South,169,0.0,0.0,73,0.00,,,0.00,dv,2013-07-16 16:35:00,
2013-07-16 12:40:00,79.8,72.6,30.32,South,169,1.6,1.6,74,0.00,,,0.00,dv,2013-07-16 16:40:00,
2013-07-16 12:45:00,80.0,72.8,30.32,South,169,3.2,3.2,74,0.00,,,0.00,dv,2013-07-16 16:45:00,
2013-07-16 12:50:00,80.2,72.4,30.32,South,169,3.2,3.2,72,0.00,,,0.00,dv,2013-07-16 16:50:00,
2013-07-16 12:55:00,80.4,71.9,30.32,South,169,0.0,0.0,70,0.00,,,0.00,dv,2013-07-16 16:55:00,
2013-07-16 13:00:00,80.5,72.3,30.31,South,169,1.6,1.6,71,0.00,,,0.00,dv,2013-07-16 17:00:00,
2013-07-16 13:05:00,80.7,72.2,30.31,South,169,1.6,1.6,70,0.00,,,0.00,dv,2013-07-16 17:05:00,
2013-07-16 13:10:00,80.8,72.3,30.31,South,169,0.0,0.0,70,0.00,,,0.00,dv,2013-07-16 17:10:00,
2013-07-16 13:15:00,80.9,71.7,30.31,South,169,1.6,1.6,68,0.00,,,0.00,dv,2013-07-16 17:15:00,
2013-07-16 13:20:00,81.1,71.6,30.31,South,169,3.2,3.2,67,0.00,,,0.00,dv,2013-07-16 17:20:00,
2013-07-16 13:25:00,81.4,72.5,30.31,South,169,0.0,0.0,69,0.00,,,0.00,dv,2013-07-16 17:25:00,
2013-07-16 13:30:00,81.4,71.8,30.31,South,169,0.0,0.0,67,0.00,,,0.00,dv,2013-07-16 17:30:00,
2013-07-16 13:35:00,81.5,71.6,30.30,South,169,1.6,1.6,66,0.00,,,0.00,dv,2013-07-16 17:35:00,
2013-07-16 13:40:00,81.8,73.2,30.31,South,169,0.0,0.0,70,0.00,,,0.00,dv,2013-07-16 17:40:00,
2013-07-16 13:45:00,82.4,73.1,30.30,South,169,1.6,1.6,68,0.00,,,0.00,dv,2013-07-16 17:45:00,
2013-07-16 13:50:00,82.5,72.9,30.30,South,169,1.6,1.6,67,0.00,,,0.00,dv,2013-07-16 17:50:00,
2013-07-16 13:55:00,82.6,73.3,30.30,South,169,0.0,0.0,68,0.00,,,0.00,dv,2013-07-16 17:55:00,
2013-07-16 14:00:00,82.7,73.4,30.30,South,169,3.2,3.2,68,0.00,,,0.00,dv,2013-07-16 18:00:00,
2013-07-16 14:05:00,82.8,73.2,30.30,South,169,1.6,1.6,67,0.00,,,0.00,dv,2013-07-16 18:05:00,
2013-07-16 14:10:00,82.8,72.8,30.30,South,169,0.0,0.0,66,0.00,,,0.00,dv,2013-07-16 18:10:00,
2013-07-16 14:20:00,83.0,73.0,30.30,South,176,1.6,1.6,66,0.00,,,0.00,dv,2013-07-16 18:20:00,
2013-07-16 14:25:00,82.9,72.9,30.29,South,176,1.6,1.6,66,0.00,,,0.00,dv,2013-07-16 18:25:00,
2013-07-16 14:30:00,83.2,73.2,30.29,South,176,0.0,0.0,66,0.00,,,0.00,dv,2013-07-16 18:30:00,
2013-07-16 14:35:00,83.7,74.0,30.29,South,176,0.0,0.0,67,0.00,,,0.00,dv,2013-07-16 18:35:00,
2013-07-16 14:40:00,84.0,73.2,30.29,South,176,1.6,1.6,64,0.00,,,0.00,dv,2013-07-16 18:40:00,
2013-07-16 14:45:00,84.0,73.6,30.29,SE,126,3.2,3.2,65,0.00,,,0.00,dv,2013-07-16 18:45:00,
2013-07-16 14:50:00,83.9,72.7,30.29,SE,126,1.6,1.6,63,0.00,,,0.00,dv,2013-07-16 18:50:00,
2013-07-16 14:55:00,84.0,73.6,30.28,SE,126,0.0,0.0,65,0.00,,,0.00,dv,2013-07-16 18:55:00,
2013-07-16 15:00:00,84.1,74.0,30.28,SE,126,1.6,1.6,66,0.00,,,0.00,dv,2013-07-16 19:00:00,
2013-07-16 15:05:00,84.4,72.8,30.28,SE,126,1.6,1.6,62,0.00,,,0.00,dv,2013-07-16 19:05:00,
2013-07-16 15:10:00,84.4,73.6,30.28,SE,126,3.2,3.2,64,0.00,,,0.00,dv,2013-07-16 19:10:00,
2013-07-16 15:15:00,84.3,73.1,30.28,SE,128,1.6,1.6,63,0.00,,,0.00,dv,2013-07-16 19:15:00,
2013-07-16 15:20:00,84.3,72.4,30.28,SE,128,1.6,1.6,61,0.00,,,0.00,dv,2013-07-16 19:20:00,
2013-07-16 15:25:00,84.1,73.7,30.28,SE,128,1.6,1.6,65,0.00,,,0.00,dv,2013-07-16 19:25:00,
2013-07-16 15:30:00,83.9,73.1,30.28,SE,129,0.0,0.0,64,0.00,,,0.00,dv,2013-07-16 19:30:00,
2013-07-16 15:35:00,83.9,73.5,30.28,SSE,168,0.0,0.0,65,0.00,,,0.00,dv,2013-07-16 19:35:00,
2013-07-16 15:40:00,83.9,73.1,30.27,ESE,108,1.6,1.6,64,0.00,,,0.00,dv,2013-07-16 19:40:00,
2013-07-16 15:50:00,84.1,73.3,30.27,ESE,108,0.0,0.0,64,0.00,,,0.00,dv,2013-07-16 19:50:00,
2013-07-16 15:55:00,84.3,73.1,30.27,ESE,108,0.0,0.0,63,0.00,,,0.00,dv,2013-07-16 19:55:00,
2013-07-16 16:00:00,84.6,74.1,30.27,ESE,108,1.6,1.6,65,0.00,,,0.00,dv,2013-07-16 20:00:00,
2013-07-16 16:05:00,84.6,73.8,30.27,ESE,108,1.6,1.6,64,0.00,,,0.00,dv,2013-07-16 20:05:00,
2013-07-16 16:10:00,84.7,73.5,30.27,South,169,1.6,1.6,63,0.00,,,0.00,dv,2013-07-16 20:10:00,
2013-07-16 16:15:00,84.8,74.0,30.26,South,169,0.0,0.0,64,0.00,,,0.00,dv,2013-07-16 20:15:00,
2013-07-16 16:20:00,84.9,73.3,30.26,South,169,1.6,1.6,62,0.00,,,0.00,dv,2013-07-16 20:20:00,
2013-07-16 16:25:00,85.0,74.1,30.26,South,169,0.0,0.0,64,0.00,,,0.00,dv,2013-07-16 20:25:00,
2013-07-16 16:30:00,85.0,73.8,30.26,South,170,0.0,0.0,63,0.00,,,0.00,dv,2013-07-16 20:30:00,
2013-07-16 16:35:00,84.9,73.7,30.26,South,169,1.6,1.6,63,0.00,,,0.00,dv,2013-07-16 20:35:00,
2013-07-16 16:40:00,84.5,73.3,30.26,South,169,0.0,0.0,63,0.00,,,0.00,dv,2013-07-16 20:40:00,
2013-07-16 16:45:00,84.4,72.8,30.26,South,169,0.0,0.0,62,0.00,,,0.00,dv,2013-07-16 20:45:00,
2013-07-16 16:50:00,84.5,73.3,30.26,South,169,0.0,0.0,63,0.00,,,0.00,dv,2013-07-16 20:50:00,
2013-07-16 16:55:00,84.6,73.8,30.26,South,169,0.0,0.0,64,0.00,,,0.00,dv,2013-07-16 20:55:00,
2013-07-16 17:00:00,84.6,74.1,30.25,South,169,0.0,0.0,65,0.00,,,0.00,dv,2013-07-16 21:00:00,
2013-07-16 17:05:00,84.7,74.2,30.25,South,169,0.0,0.0,65,0.00,,,0.00,dv,2013-07-16 21:05:00,
2013-07-16 17:10:00,84.6,73.4,30.25,South,169,0.0,0.0,63,0.00,,,0.00,dv,2013-07-16 21:10:00,
2013-07-16 17:15:00,84.6,73.4,30.26,South,169,0.0,0.0,63,0.00,,,0.00,dv,2013-07-16 21:15:00,
2013-07-16 17:20:00,84.5,73.3,30.25,South,169,1.6,1.6,63,0.00,,,0.00,dv,2013-07-16 21:20:00,
2013-07-16 17:25:00,84.4,73.9,30.25,South,169,0.0,0.0,65,0.00,,,0.00,dv,2013-07-16 21:25:00,
2013-07-16 17:30:00,84.4,73.9,30.25,South,169,0.0,0.0,65,0.00,,,0.00,dv,2013-07-16 21:30:00,
2013-07-16 17:35:00,84.5,74.0,30.25,South,169,1.6,1.6,65,0.00,,,0.00,dv,2013-07-16 21:35:00,
2013-07-16 17:40:00,84.4,73.2,30.25,South,169,0.0,0.0,63,0.00,,,0.00,dv,2013-07-16 21:40:00,
2013-07-16 17:45:00,84.4,73.9,30.25,South,169,0.0,0.0,65,0.00,,,0.00,dv,2013-07-16 21:45:00,
2013-07-16 17:50:00,84.2,73.8,30.25,South,169,0.0,0.0,65,0.00,,,0.00,dv,2013-07-16 21:50:00,
2013-07-16 17:55:00,84.2,73.4,30.25,South,169,0.0,0.0,64,0.00,,,0.00,dv,2013-07-16 21:55:00,
2013-07-16 18:00:00,84.2,73.4,30.25,South,169,0.0,0.0,64,0.00,,,0.00,dv,2013-07-16 22:00:00,
2013-07-16 18:05:00,84.0,73.2,30.25,South,169,0.0,0.0,64,0.00,,,0.00,dv,2013-07-16 22:05:00,
2013-07-16 18:10:00,83.9,72.7,30.24,South,169,0.0,0.0,63,0.00,,,0.00,dv,2013-07-16 22:10:00,
2013-07-16 18:20:00,84.0,72.8,30.24,South,169,0.0,0.0,63,0.00,,,0.00,dv,2013-07-16 22:20:00,
2013-07-16 18:25:00,84.0,73.2,30.25,South,169,0.0,0.0,64,0.00,,,0.00,dv,2013-07-16 22:25:00,
2013-07-16 18:30:00,84.0,72.8,30.25,South,169,0.0,0.0,63,0.00,,,0.00,dv,2013-07-16 22:30:00,
2013-07-16 18:35:00,84.0,73.2,30.24,South,169,0.0,0.0,64,0.00,,,0.00,dv,2013-07-16 22:35:00,
2013-07-16 18:40:00,84.0,73.2,30.24,South,169,1.6,1.6,64,0.00,,,0.00,dv,2013-07-16 22:40:00,
2013-07-16 18:45:00,83.7,72.6,30.25,South,169,0.0,0.0,63,0.00,,,0.00,dv,2013-07-16 22:45:00,
2013-07-16 18:50:00,83.7,73.3,30.25,South,169,0.0,0.0,65,0.00,,,0.00,dv,2013-07-16 22:50:00,
2013-07-16 18:55:00,83.7,73.3,30.24,South,169,0.0,0.0,65,0.00,,,0.00,dv,2013-07-16 22:55:00,
2013-07-16 19:00:00,83.7,72.9,30.25,South,169,1.6,1.6,64,0.00,,,0.00,dv,2013-07-16 23:00:00,
2013-07-16 19:05:00,83.4,73.0,30.25,South,169,0.0,0.0,65,0.00,,,0.00,dv,2013-07-16 23:05:00,
2013-07-16 19:10:00,83.2,72.1,30.25,South,169,0.0,0.0,63,0.00,,,0.00,dv,2013-07-16 23:10:00,
2013-07-16 19:15:00,83.1,72.7,30.25,South,169,0.0,0.0,65,0.00,,,0.00,dv,2013-07-16 23:15:00,
2013-07-16 19:20:00,83.0,73.0,30.25,South,169,0.0,0.0,66,0.00,,,0.00,dv,2013-07-16 23:20:00,
2013-07-16 19:25:00,82.9,72.9,30.25,South,169,0.0,0.0,66,0.00,,,0.00,dv,2013-07-16 23:25:00,
2013-07-16 19:30:00,82.8,73.2,30.25,South,169,0.0,0.0,67,0.00,,,0.00,dv,2013-07-16 23:30:00,
2013-07-16 19:40:00,82.8,74.5,30.26,South,169,0.0,0.0,71,0.00,,,0.00,dv,2013-07-16 23:40:00,
2013-07-16 19:45:00,82.7,74.8,30.26,South,169,0.0,0.0,72,0.00,,,0.00,dv,2013-07-16 23:45:00,
2013-07-16 19:50:00,82.5,74.6,30.26,South,169,0.0,0.0,72,0.00,,,0.00,dv,2013-07-16 23:50:00,
2013-07-16 19:55:00,82.2,74.3,30.26,South,169,0.0,0.0,72,0.00,,,0.00,dv,2013-07-16 23:55:00,
2013-07-16 20:00:00,81.8,74.2,30.26,South,169,0.0,0.0,73,0.00,,,0.00,dv,2013-07-17 00:00:00,
2013-07-16 20:05:00,81.5,74.3,30.26,South,169,0.0,0.0,74,0.00,,,0.00,dv,2013-07-17 00:05:00,
2013-07-16 20:10:00,81.2,74.0,30.26,South,169,0.0,0.0,74,0.00,,,0.00,dv,2013-07-17 00:10:00,
2013-07-16 20:15:00,80.9,74.0,30.26,South,169,0.0,0.0,75,0.00,,,0.00,dv,2013-07-17 00:15:00,
2013-07-16 20:20:00,80.5,73.6,30.26,South,169,0.0,0.0,75,0.00,,,0.00,dv,2013-07-17 00:20:00,
2013-07-16 20:25:00,80.1,73.5,30.26,South,169,0.0,0.0,76,0.00,,,0.00,dv,2013-07-17 00:25:00,
2013-07-16 20:30:00,79.8,73.3,30.26,South,169,0.0,0.0,76,0.00,,,0.00,dv,2013-07-17 00:30:00,
2013-07-16 20:35:00,79.5,73.3,30.26,South,169,0.0,0.0,77,0.00,,,0.00,dv,2013-07-17 00:35:00,
2013-07-16 20:40:00,79.2,73.0,30.27,South,169,0.0,0.0,77,0.00,,,0.00,dv,2013-07-17 00:40:00,
2013-07-16 20:45:00,78.8,72.9,30.27,South,169,0.0,0.0,78,0.00,,,0.00,dv,2013-07-17 00:45:00,
2013-07-16 20:50:00,78.5,72.6,30.27,South,169,0.0,0.0,78,0.00,,,0.00,dv,2013-07-17 00:50:00,
2013-07-16 20:55:00,78.1,72.5,30.27,South,169,0.0,0.0,79,0.00,,,0.00,dv,2013-07-17 00:55:00,
2013-07-16 21:00:00,77.9,72.3,30.27,South,169,0.0,0.0,79,0.00,,,0.00,dv,2013-07-17 01:00:00,
2013-07-16 21:05:00,77.6,72.0,30.26,South,169,0.0,0.0,79,0.00,,,0.00,dv,2013-07-17 01:05:00,
2013-07-16 21:10:00,77.4,71.8,30.26,South,169,0.0,0.0,79,0.00,,,0.00,dv,2013-07-17 01:10:00,
2013-07-16 21:15:00,77.2,71.7,30.27,South,169,0.0,0.0,79,0.00,,,0.00,dv,2013-07-17 01:15:00,
2013-07-16 21:20:00,77.1,71.8,30.26,South,169,0.0,0.0,80,0.00,,,0.00,dv,2013-07-17 01:20:00,
2013-07-16 21:25:00,77.0,72.0,30.26,South,169,0.0,0.0,81,0.00,,,0.00,dv,2013-07-17 01:25:00,
2013-07-16 21:30:00,76.7,71.7,30.26,South,169,0.0,0.0,81,0.00,,,0.00,dv,2013-07-17 01:30:00,
2013-07-16 21:35:00,76.7,71.7,30.26,South,169,0.0,0.0,81,0.00,,,0.00,dv,2013-07-17 01:35:00,
2013-07-16 21:40:00,76.5,71.6,30.26,South,169,0.0,0.0,81,0.00,,,0.00,dv,2013-07-17 01:40:00,
2013-07-16 21:45:00,76.3,71.4,30.26,South,169,0.0,0.0,81,0.00,,,0.00,dv,2013-07-17 01:45:00,
2013-07-16 21:50:00,76.2,71.5,30.26,South,169,0.0,0.0,82,0.00,,,0.00,dv,2013-07-17 01:50:00,
2013-07-16 21:55:00,76.1,71.5,30.27,South,169,0.0,0.0,82,0.00,,,0.00,dv,2013-07-17 01:55:00,
2013-07-16 22:00:00,75.9,71.3,30.27,South,169,0.0,0.0,82,0.00,,,0.00,dv,2013-07-17 02:00:00,
2013-07-16 22:05:00,75.8,71.2,30.27,South,169,0.0,0.0,82,0.00,,,0.00,dv,2013-07-17 02:05:00,
2013-07-16 22:10:00,75.7,71.1,30.27,South,169,0.0,0.0,82,0.00,,,0.00,dv,2013-07-17 02:10:00,
2013-07-16 22:15:00,75.6,71.2,30.27,South,169,0.0,0.0,83,0.00,,,0.00,dv,2013-07-17 02:15:00,
2013-07-16 22:20:00,75.5,71.1,30.27,South,169,0.0,0.0,83,0.00,,,0.00,dv,2013-07-17 02:20:00,
2013-07-16 22:25:00,75.3,71.0,30.28,South,169,0.0,0.0,83,0.00,,,0.00,dv,2013-07-17 02:25:00,
2013-07-16 22:30:00,75.1,71.0,30.28,South,169,0.0,0.0,84,0.00,,,0.00,dv,2013-07-17 02:30:00,
2013-07-16 22:35:00,75.0,70.9,30.28,South,169,0.0,0.0,84,0.00,,,0.00,dv,2013-07-17 02:35:00,
2013-07-16 22:40:00,75.0,70.9,30.28,South,169,0.0,0.0,84,0.00,,,0.00,dv,2013-07-17 02:40:00,
2013-07-16 22:45:00,74.8,70.7,30.29,South,169,0.0,0.0,84,0.00,,,0.00,dv,2013-07-17 02:45:00,
2013-07-16 22:50:00,74.7,70.6,30.29,South,169,0.0,0.0,84,0.00,,,0.00,dv,2013-07-17 02:50:00,
2013-07-16 22:55:00,74.5,70.4,30.29,South,169,0.0,0.0,84,0.00,,,0.00,dv,2013-07-17 02:55:00,
2013-07-16 23:00:00,74.5,70.4,30.29,South,169,0.0,0.0,84,0.00,,,0.00,dv,2013-07-17 03:00:00,
2013-07-16 23:05:00,74.4,70.6,30.29,South,169,0.0,0.0,85,0.00,,,0.00,dv,2013-07-17 03:05:00,
2013-07-16 23:10:00,74.3,70.5,30.29,South,169,0.0,0.0,85,0.00,,,0.00,dv,2013-07-17 03:10:00,
2013-07-16 23:15:00,74.3,70.5,30.29,South,169,0.0,0.0,85,0.00,,,0.00,dv,2013-07-17 03:15:00,
2013-07-16 23:20:00,74.2,70.4,30.29,South,169,0.0,0.0,85,0.00,,,0.00,dv,2013-07-17 03:20:00,
2013-07-16 23:25:00,74.1,70.3,30.29,South,170,0.0,0.0,85,0.00,,,0.00,dv,2013-07-17 03:25:00,
2013-07-16 23:30:00,74.2,70.7,30.29,South,169,0.0,0.0,86,0.00,,,0.00,dv,2013-07-17 03:30:00,
2013-07-16 23:35:00,74.0,70.5,30.29,South,169,0.0,0.0,86,0.00,,,0.00,dv,2013-07-17 03:35:00,
2013-07-16 23:40:00,74.0,70.5,30.29,South,169,0.0,0.0,86,0.00,,,0.00,dv,2013-07-17 03:40:00,
2013-07-16 23:45:00,73.9,70.4,30.29,South,169,0.0,0.0,86,0.00,,,0.00,dv,2013-07-17 03:45:00,
2013-07-16 23:50:00,73.9,70.7,30.29,South,169,0.0,0.0,87,0.00,,,0.00,dv,2013-07-17 03:50:00,
2013-07-16 23:55:00,73.8,70.6,30.29,South,169,0.0,0.0,87,0.00,,,0.00,dv,2013-07-17 03:55:00,